Time,TemperatureF,DewpointF,PressureIn,WindDirection,WindDirectionDegrees,WindSpeedMPH,WindSpeedGustMPH,Humidity,HourlyPrecipIn,Conditions,Clouds,dailyrainin,SoftwareType,DateUTC
2013-01-09 00:00:00,29.0,24.2,29.91,West,270,6.0,12.0,82,0.00,,,-99.99,Weather View 32 v60,2013-01-09 06:00:00,
2013-01-09 00:05:00,29.0,24.2,29.90,WNW,292,5.0,12.0,82,0.00,,,-99.99,Weather View 32 v60,2013-01-09 06:05:00,
2013-01-09 00:10:00,29.0,24.2,29.91,West,270,4.0,12.0,82,0.00,,,-99.99,Weather View 32 v60,2013-01-09 06:10:00,
2013-01-09 00:15:00,29.0,24.2,29.90,WSW,248,2.0,12.0,82,0.00,,,-99.99,Weather View 32 v60,2013-01-09 06:15:00,
2013-01-09 00:20:00,29.0,24.2,29.91,West,270,4.0,12.0,82,0.00,,,-99.99,Weather View 32 v60,2013-01-09 06:20:00,
2013-01-09 00:25:00,30.0,25.2,29.91,West,270,3.0,12.0,82,0.00,,,-99.99,Weather View 32 v60,2013-01-09 06:25:00,
2013-01-09 00:30:00,30.0,25.2,29.90,WSW,248,3.0,12.0,82,0.00,,,-99.99,Weather View 32 v60,2013-01-09 06:30:00,
2013-01-09 00:35:00,30.0,25.2,29.90,WNW,292,8.0,12.0,82,0.00,,,-99.99,Weather View 32 v60,2013-01-09 06:35:00,
2013-01-09 00:40:00,30.0,24.9,29.90,WSW,248,2.0,12.0,81,0.00,,,-99.99,Weather View 32 v60,2013-01-09 06:40:00,
2013-01-09 00:45:00,30.0,24.9,29.91,WSW,248,8.0,12.0,81,0.00,,,-99.99,Weather View 32 v60,2013-01-09 06:45:00,
2013-01-09 00:50:00,30.0,24.9,29.91,WSW,248,5.0,12.0,81,0.00,,,-99.99,Weather View 32 v60,2013-01-09 06:50:00,
2013-01-09 00:55:00,30.0,24.9,29.91,SSW,202,5.0,12.0,81,0.00,,,-99.99,Weather View 32 v60,2013-01-09 06:55:00,
2013-01-09 01:00:00,30.0,24.9,29.91,WNW,292,3.0,12.0,81,0.00,,,-99.99,Weather View 32 v60,2013-01-09 07:00:00,
2013-01-09 01:05:00,29.0,23.9,29.91,WSW,248,5.0,10.0,81,0.00,,,-99.99,Weather View 32 v60,2013-01-09 07:05:00,
2013-01-09 01:10:00,29.0,23.9,29.91,WNW,292,6.0,10.0,81,0.00,,,-99.99,Weather View 32 v60,2013-01-09 07:10:00,
2013-01-09 01:15:00,29.0,23.9,29.91,SW,225,9.0,10.0,81,0.00,,,-99.99,Weather View 32 v60,2013-01-09 07:15:00,
2013-01-09 01:20:00,29.0,23.9,29.91,West,270,11.0,13.0,81,0.00,,,-99.99,Weather View 32 v60,2013-01-09 07:20:00,
2013-01-09 01:25:00,29.0,23.9,29.92,WNW,292,2.0,13.0,81,0.00,,,-99.99,Weather View 32 v60,2013-01-09 07:25:00,
2013-01-09 01:30:00,29.0,23.9,29.92,West,270,4.0,13.0,81,0.00,,,-99.99,Weather View 32 v60,2013-01-09 07:30:00,
2013-01-09 01:35:00,29.0,23.9,29.92,West,270,3.0,13.0,81,0.00,,,-99.99,Weather View 32 v60,2013-01-09 07:35:00,
2013-01-09 01:40:00,29.0,23.9,29.91,SW,225,3.0,13.0,81,0.00,,,-99.99,Weather View 32 v60,2013-01-09 07:40:00,
2013-01-09 01:45:00,29.0,23.9,29.91,WSW,248,3.0,13.0,81,0.00,,,-99.99,Weather View 32 v60,2013-01-09 07:45:00,
2013-01-09 01:50:00,28.0,22.9,29.91,WSW,248,2.0,13.0,81,0.00,,,-99.99,Weather View 32 v60,2013-01-09 07:50:00,
2013-01-09 01:55:00,28.0,22.9,29.91,WSW,248,3.0,13.0,81,0.00,,,-99.99,Weather View 32 v60,2013-01-09 07:55:00,
2013-01-09 02:00:00,28.0,23.2,29.92,WSW,248,6.0,13.0,82,0.00,,,-99.99,Weather View 32 v60,2013-01-09 08:00:00,
2013-01-09 02:05:00,29.0,24.2,29.92,WNW,292,3.0,13.0,82,0.00,,,-99.99,Weather View 32 v60,2013-01-09 08:05:00,
2013-01-09 02:10:00,29.0,24.2,29.92,West,270,5.0,13.0,82,0.00,,,-99.99,Weather View 32 v60,2013-01-09 08:10:00,
2013-01-09 02:15:00,29.0,24.2,29.92,WSW,248,5.0,13.0,82,0.00,,,-99.99,Weather View 32 v60,2013-01-09 08:15:00,
2013-01-09 02:20:00,29.0,24.2,29.92,West,270,3.0,13.0,82,0.00,,,-99.99,Weather View 32 v60,2013-01-09 08:20:00,
2013-01-09 02:25:00,29.0,23.9,29.92,WSW,248,2.0,13.0,81,0.00,,,-99.99,Weather View 32 v60,2013-01-09 08:25:00,
2013-01-09 02:30:00,29.0,23.9,29.92,WNW,292,10.0,13.0,81,0.00,,,-99.99,Weather View 32 v60,2013-01-09 08:30:00,
2013-01-09 02:35:00,29.0,23.9,29.92,WNW,292,4.0,13.0,81,0.00,,,-99.99,Weather View 32 v60,2013-01-09 08:35:00,
2013-01-09 02:40:00,29.0,23.9,29.92,West,270,8.0,14.0,81,0.00,,,-99.99,Weather View 32 v60,2013-01-09 08:40:00,
2013-01-09 02:45:00,29.0,23.9,29.92,WSW,248,4.0,14.0,81,0.00,,,-99.99,Weather View 32 v60,2013-01-09 08:45:00,
2013-01-09 02:50:00,29.0,23.9,29.91,West,270,5.0,14.0,81,0.00,,,-99.99,Weather View 32 v60,2013-01-09 08:50:00,
2013-01-09 02:55:00,29.0,23.9,29.92,SW,225,4.0,14.0,81,0.00,,,-99.99,Weather View 32 v60,2013-01-09 08:55:00,
2013-01-09 03:05:00,29.0,23.9,29.92,WSW,248,6.0,14.0,81,0.00,,,-99.99,Weather View 32 v60,2013-01-09 09:05:00,
2013-01-09 03:10:00,29.0,23.9,29.92,WNW,292,10.0,14.0,81,0.00,,,-99.99,Weather View 32 v60,2013-01-09 09:10:00,
2013-01-09 03:15:00,29.0,23.9,29.92,West,270,5.0,14.0,81,0.00,,,-99.99,Weather View 32 v60,2013-01-09 09:15:00,
2013-01-09 03:20:00,30.0,24.9,29.92,West,270,11.0,14.0,81,0.00,,,-99.99,Weather View 32 v60,2013-01-09 09:20:00,
2013-01-09 03:35:00,31.0,25.6,29.93,WNW,292,6.0,14.0,80,0.00,,,-99.99,Weather View 32 v60,2013-01-09 09:35:00,
2013-01-09 03:40:00,31.0,25.3,29.93,West,270,6.0,14.0,79,0.00,,,-99.99,Weather View 32 v60,2013-01-09 09:40:00,
2013-01-09 03:50:00,32.0,25.6,29.93,NW,315,13.0,14.0,77,0.00,,,-99.99,Weather View 32 v60,2013-01-09 09:50:00,
2013-01-09 04:00:00,29.0,23.9,29.92,SW,225,5.0,14.0,81,0.00,,,-99.99,Weather View 32 v60,2013-01-09 10:00:00,
2013-01-09 04:05:00,32.0,25.0,29.93,WNW,292,8.0,18.0,75,0.00,,,-99.99,Weather View 32 v60,2013-01-09 10:05:00,
2013-01-09 04:10:00,32.0,25.0,29.94,WNW,292,10.0,18.0,75,0.00,,,-99.99,Weather View 32 v60,2013-01-09 10:10:00,
2013-01-09 04:15:00,32.0,25.0,29.94,WNW,292,7.0,18.0,75,0.00,,,-99.99,Weather View 32 v60,2013-01-09 10:15:00,
2013-01-09 04:20:00,32.0,24.6,29.94,NW,315,5.0,18.0,74,0.00,,,-99.99,Weather View 32 v60,2013-01-09 10:20:00,
2013-01-09 04:25:00,30.0,24.9,29.93,WNW,292,6.0,14.0,81,0.00,,,-99.99,Weather View 32 v60,2013-01-09 10:25:00,
2013-01-09 04:30:00,30.0,24.6,29.92,West,270,3.0,14.0,80,0.00,,,-99.99,Weather View 32 v60,2013-01-09 10:30:00,
2013-01-09 04:35:00,31.0,25.6,29.93,WNW,292,6.0,14.0,80,0.00,,,-99.99,Weather View 32 v60,2013-01-09 10:35:00,
2013-01-09 04:45:00,31.0,24.9,29.93,West,270,6.0,14.0,78,0.00,,,-99.99,Weather View 32 v60,2013-01-09 10:45:00,
2013-01-09 04:55:00,32.0,25.6,29.93,West,270,9.0,14.0,77,0.00,,,-99.99,Weather View 32 v60,2013-01-09 10:55:00,
2013-01-09 05:00:00,32.0,23.7,29.97,NW,315,3.0,22.0,71,0.01,,,-99.99,Weather View 32 v60,2013-01-09 11:00:00,
2013-01-09 05:35:00,32.0,24.0,29.95,NNW,338,12.0,21.0,72,0.01,,,-99.99,Weather View 32 v60,2013-01-09 11:35:00,
2013-01-09 05:40:00,32.0,24.0,29.96,WNW,292,6.0,22.0,72,0.01,,,-99.99,Weather View 32 v60,2013-01-09 11:40:00,
2013-01-09 05:50:00,32.0,24.0,29.97,WNW,292,5.0,22.0,72,0.01,,,-99.99,Weather View 32 v60,2013-01-09 11:50:00,
2013-01-09 05:55:00,32.0,23.7,29.97,West,270,8.0,22.0,71,0.01,,,-99.99,Weather View 32 v60,2013-01-09 11:55:00,
2013-01-09 06:05:00,31.0,22.7,29.98,WNW,292,6.0,22.0,71,0.01,,,-99.99,Weather View 32 v60,2013-01-09 12:05:00,
2013-01-09 06:10:00,31.0,22.7,29.98,WSW,248,3.0,22.0,71,0.01,,,-99.99,Weather View 32 v60,2013-01-09 12:10:00,
2013-01-09 06:20:00,31.0,22.7,29.99,NNW,338,8.0,22.0,71,0.01,,,-99.99,Weather View 32 v60,2013-01-09 12:20:00,
2013-01-09 06:25:00,31.0,22.4,30.00,WNW,292,7.0,22.0,70,0.01,,,-99.99,Weather View 32 v60,2013-01-09 12:25:00,
2013-01-09 06:30:00,31.0,22.4,30.00,NW,315,11.0,22.0,70,0.00,,,-99.99,Weather View 32 v60,2013-01-09 12:30:00,
2013-01-09 06:35:00,31.0,22.0,30.00,NW,315,16.0,22.0,69,0.00,,,-99.99,Weather View 32 v60,2013-01-09 12:35:00,
2013-01-09 06:40:00,31.0,22.0,30.01,WNW,292,9.0,22.0,69,0.00,,,-99.99,Weather View 32 v60,2013-01-09 12:40:00,
2013-01-09 06:45:00,31.0,22.0,30.01,NNW,338,10.0,22.0,69,0.00,,,-99.99,Weather View 32 v60,2013-01-09 12:45:00,
2013-01-09 06:50:00,30.0,21.1,30.02,WNW,292,12.0,23.0,69,0.00,,,-99.99,Weather View 32 v60,2013-01-09 12:50:00,
2013-01-09 07:00:00,30.0,21.1,30.02,North,0,6.0,24.0,69,0.00,,,-99.99,Weather View 32 v60,2013-01-09 13:00:00,
2013-01-09 07:05:00,30.0,21.1,30.03,WNW,292,5.0,26.0,69,0.00,,,-99.99,Weather View 32 v60,2013-01-09 13:05:00,
2013-01-09 07:10:00,30.0,21.1,30.04,NW,315,8.0,26.0,69,0.00,,,-99.99,Weather View 32 v60,2013-01-09 13:10:00,
2013-01-09 07:20:00,30.0,21.1,30.05,WNW,292,6.0,26.0,69,0.00,,,-99.99,Weather View 32 v60,2013-01-09 13:20:00,
2013-01-09 07:25:00,30.0,21.1,30.05,NNW,338,10.0,26.0,69,0.00,,,-99.99,Weather View 32 v60,2013-01-09 13:25:00,
2013-01-09 07:30:00,29.0,20.4,30.05,WNW,292,10.0,26.0,70,0.00,,,-99.99,Weather View 32 v60,2013-01-09 13:30:00,
2013-01-09 07:35:00,29.0,20.4,30.06,NW,315,5.0,26.0,70,0.00,,,-99.99,Weather View 32 v60,2013-01-09 13:35:00,
2013-01-09 07:40:00,29.0,20.4,30.06,NW,315,6.0,26.0,70,0.00,,,-99.99,Weather View 32 v60,2013-01-09 13:40:00,
2013-01-09 07:45:00,29.0,20.4,30.06,NW,315,5.0,26.0,70,0.00,,,-99.99,Weather View 32 v60,2013-01-09 13:45:00,
2013-01-09 07:55:00,29.0,20.4,30.07,West,270,6.0,26.0,70,0.00,,,-99.99,Weather View 32 v60,2013-01-09 13:55:00,
2013-01-09 08:00:00,29.0,20.4,30.07,NW,315,11.0,26.0,70,0.00,,,-99.99,Weather View 32 v60,2013-01-09 14:00:00,
2013-01-09 08:05:00,29.0,20.8,30.08,WNW,292,6.0,20.0,71,0.00,,,-99.99,Weather View 32 v60,2013-01-09 14:05:00,
2013-01-09 08:15:00,29.0,20.8,30.09,WNW,292,6.0,20.0,71,0.00,,,-99.99,Weather View 32 v60,2013-01-09 14:15:00,
2013-01-09 08:20:00,28.0,19.8,30.09,NW,315,11.0,20.0,71,0.00,,,-99.99,Weather View 32 v60,2013-01-09 14:20:00,
2013-01-09 08:25:00,28.0,19.8,30.10,NW,315,8.0,20.0,71,0.00,,,-99.99,Weather View 32 v60,2013-01-09 14:25:00,
2013-01-09 08:30:00,28.0,19.8,30.10,WNW,292,7.0,20.0,71,0.00,,,-99.99,Weather View 32 v60,2013-01-09 14:30:00,
2013-01-09 08:35:00,29.0,20.8,30.11,WNW,292,4.0,20.0,71,0.00,,,-99.99,Weather View 32 v60,2013-01-09 14:35:00,
2013-01-09 08:40:00,29.0,20.8,30.11,NW,315,11.0,20.0,71,0.00,,,-99.99,Weather View 32 v60,2013-01-09 14:40:00,
2013-01-09 08:50:00,29.0,20.4,30.11,NNW,338,6.0,19.0,70,0.00,,,-99.99,Weather View 32 v60,2013-01-09 14:50:00,
2013-01-09 08:55:00,29.0,20.4,30.12,WNW,292,11.0,19.0,70,0.00,,,-99.99,Weather View 32 v60,2013-01-09 14:55:00,
2013-01-09 09:04:00,29.0,20.4,30.12,WNW,292,8.0,19.0,70,0.00,,,-99.99,Weather View 32 v60,2013-01-09 15:04:00,
2013-01-09 09:10:00,29.0,20.4,30.12,NW,315,11.0,19.0,70,0.00,,,-99.99,Weather View 32 v60,2013-01-09 15:10:00,
2013-01-09 09:15:00,29.0,20.1,30.12,NE,45,10.0,19.0,69,0.00,,,-99.99,Weather View 32 v60,2013-01-09 15:15:00,
2013-01-09 09:20:00,29.0,20.1,30.13,WNW,292,3.0,19.0,69,0.00,,,-99.99,Weather View 32 v60,2013-01-09 15:20:00,
2013-01-09 09:30:00,29.0,20.1,30.13,NNW,338,4.0,18.0,69,0.00,,,-99.99,Weather View 32 v60,2013-01-09 15:30:00,
2013-01-09 09:35:00,29.0,20.1,30.14,North,0,6.0,18.0,69,0.00,,,-99.99,Weather View 32 v60,2013-01-09 15:35:00,
2013-01-09 09:40:00,29.0,20.1,30.14,North,0,7.0,18.0,69,0.00,,,-99.99,Weather View 32 v60,2013-01-09 15:40:00,
2013-01-09 09:50:00,29.0,20.1,30.14,WNW,292,9.0,18.0,69,0.00,,,-99.99,Weather View 32 v60,2013-01-09 15:50:00,
2013-01-09 09:55:00,30.0,20.7,30.15,North,0,5.0,18.0,68,0.00,,,-99.99,Weather View 32 v60,2013-01-09 15:55:00,
2013-01-09 10:00:00,30.0,20.4,30.15,NW,315,6.0,21.0,67,0.00,,,-99.99,Weather View 32 v60,2013-01-09 16:00:00,
2013-01-09 10:05:00,30.0,20.4,30.16,NW,315,10.0,21.0,67,0.00,,,-99.99,Weather View 32 v60,2013-01-09 16:05:00,
2013-01-09 10:10:00,30.0,20.4,30.16,West,270,6.0,21.0,67,0.00,,,-99.99,Weather View 32 v60,2013-01-09 16:10:00,
2013-01-09 10:20:00,30.0,20.0,30.15,WNW,292,10.0,21.0,66,0.00,,,-99.99,Weather View 32 v60,2013-01-09 16:20:00,
2013-01-09 10:30:00,30.0,20.0,30.16,WNW,292,4.0,21.0,66,0.00,,,-99.99,Weather View 32 v60,2013-01-09 16:30:00,
2013-01-09 10:35:00,30.0,20.0,30.16,NNW,338,16.0,21.0,66,0.00,,,-99.99,Weather View 32 v60,2013-01-09 16:35:00,
2013-01-09 10:40:00,30.0,20.0,30.16,NW,315,7.0,21.0,66,0.00,,,-99.99,Weather View 32 v60,2013-01-09 16:40:00,
2013-01-09 10:45:00,30.0,19.7,30.16,NNW,338,10.0,21.0,65,0.00,,,-99.99,Weather View 32 v60,2013-01-09 16:45:00,
2013-01-09 10:50:00,30.0,19.7,30.16,NW,315,13.0,21.0,65,0.00,,,-99.99,Weather View 32 v60,2013-01-09 16:50:00,
2013-01-09 10:55:00,30.0,19.7,30.16,NW,315,11.0,21.0,65,0.00,,,-99.99,Weather View 32 v60,2013-01-09 16:55:00,
2013-01-09 11:00:00,30.0,19.3,30.16,North,0,6.0,21.0,64,0.00,,,-99.99,Weather View 32 v60,2013-01-09 17:00:00,
2013-01-09 11:05:00,30.0,19.3,30.16,NNW,338,5.0,21.0,64,0.00,,,-99.99,Weather View 32 v60,2013-01-09 17:05:00,
2013-01-09 11:10:00,30.0,19.3,30.16,North,0,10.0,19.0,64,0.00,,,-99.99,Weather View 32 v60,2013-01-09 17:10:00,
2013-01-09 11:15:00,30.0,19.3,30.16,North,0,6.0,19.0,64,0.00,,,-99.99,Weather View 32 v60,2013-01-09 17:15:00,
2013-01-09 11:20:00,30.0,18.9,30.16,West,270,4.0,19.0,63,0.00,,,-99.99,Weather View 32 v60,2013-01-09 17:20:00,
2013-01-09 11:25:00,30.0,18.9,30.16,NW,315,10.0,19.0,63,0.00,,,-99.99,Weather View 32 v60,2013-01-09 17:25:00,
2013-01-09 11:35:00,31.0,19.5,30.16,SW,225,3.0,18.0,62,0.00,,,-99.99,Weather View 32 v60,2013-01-09 17:35:00,
2013-01-09 11:40:00,32.0,18.9,30.21,West,270,10.0,16.0,58,0.00,,,-99.99,Weather View 32 v60,2013-01-09 17:40:00,
2013-01-09 11:41:00,31.0,19.5,30.16,West,270,9.0,18.0,62,0.00,,,-99.99,Weather View 32 v60,2013-01-09 17:41:00,
2013-01-09 11:45:00,32.0,19.3,30.20,NW,315,8.0,16.0,59,0.00,,,-99.99,Weather View 32 v60,2013-01-09 17:45:00,
2013-01-09 11:50:00,31.0,19.5,30.17,WNW,292,5.0,18.0,62,0.00,,,-99.99,Weather View 32 v60,2013-01-09 17:50:00,
2013-01-09 11:55:00,31.0,19.1,30.18,NNW,338,5.0,18.0,61,0.00,,,-99.99,Weather View 32 v60,2013-01-09 17:55:00,
2013-01-09 12:00:00,31.0,19.1,30.18,West,270,7.0,18.0,61,0.00,,,-99.99,Weather View 32 v60,2013-01-09 18:00:00,
2013-01-09 12:05:00,31.0,18.7,30.19,WNW,292,4.0,18.0,60,0.00,,,-99.99,Weather View 32 v60,2013-01-09 18:05:00,
2013-01-09 12:10:00,31.0,18.7,30.19,West,270,8.0,16.0,60,0.00,,,-99.99,Weather View 32 v60,2013-01-09 18:10:00,
2013-01-09 12:15:00,32.0,19.7,30.19,WNW,292,8.0,16.0,60,0.00,,,-99.99,Weather View 32 v60,2013-01-09 18:15:00,
2013-01-09 12:20:00,32.0,19.3,30.19,NW,315,8.0,16.0,59,0.00,,,-99.99,Weather View 32 v60,2013-01-09 18:20:00,
2013-01-09 12:25:00,32.0,18.9,30.24,West,270,3.0,18.0,58,0.00,,,-99.99,Weather View 32 v60,2013-01-09 18:25:00,
2013-01-09 12:30:00,32.0,19.3,30.20,NNW,338,8.0,16.0,59,0.00,,,-99.99,Weather View 32 v60,2013-01-09 18:30:00,
2013-01-09 12:35:00,32.0,19.3,30.20,NW,315,3.0,16.0,59,0.00,,,-99.99,Weather View 32 v60,2013-01-09 18:35:00,
2013-01-09 12:40:00,32.0,18.9,30.21,West,270,10.0,16.0,58,0.00,,,-99.99,Weather View 32 v60,2013-01-09 18:40:00,
2013-01-09 12:45:00,32.0,19.3,30.26,NW,315,10.0,18.0,59,0.00,,,-99.99,Weather View 32 v60,2013-01-09 18:45:00,
2013-01-09 12:50:00,32.0,19.3,30.26,North,0,6.0,18.0,59,0.00,,,-99.99,Weather View 32 v60,2013-01-09 18:50:00,
2013-01-09 12:55:00,32.0,19.3,30.26,NW,315,8.0,18.0,59,0.00,,,-99.99,Weather View 32 v60,2013-01-09 18:55:00,
2013-01-09 13:00:00,32.0,19.3,30.27,WNW,292,9.0,18.0,59,0.00,,,-99.99,Weather View 32 v60,2013-01-09 19:00:00,
2013-01-09 13:05:00,32.0,19.3,30.27,West,270,6.0,18.0,59,0.00,,,-99.99,Weather View 32 v60,2013-01-09 19:05:00,
2013-01-09 13:10:00,32.0,19.3,30.28,North,0,6.0,18.0,59,0.00,,,-99.99,Weather View 32 v60,2013-01-09 19:10:00,
2013-01-09 13:15:00,32.0,18.9,30.28,NW,315,5.0,18.0,58,0.00,,,-99.99,Weather View 32 v60,2013-01-09 19:15:00,
2013-01-09 13:20:00,32.0,18.9,30.28,SSW,202,5.0,18.0,58,0.00,,,-99.99,Weather View 32 v60,2013-01-09 19:20:00,
2013-01-09 13:25:00,32.0,19.3,30.28,WNW,292,8.0,18.0,59,0.00,,,-99.99,Weather View 32 v60,2013-01-09 19:25:00,
2013-01-09 13:30:00,32.0,18.9,30.28,West,270,5.0,18.0,58,0.00,,,-99.99,Weather View 32 v60,2013-01-09 19:30:00,
2013-01-09 13:35:00,31.0,17.9,30.28,West,270,10.0,18.0,58,0.00,,,-99.99,Weather View 32 v60,2013-01-09 19:35:00,
2013-01-09 13:40:00,31.0,17.9,30.29,North,0,10.0,18.0,58,0.00,,,-99.99,Weather View 32 v60,2013-01-09 19:40:00,
2013-01-09 13:45:00,31.0,17.9,30.30,NW,315,9.0,18.0,58,0.00,,,-99.99,Weather View 32 v60,2013-01-09 19:45:00,
2013-01-09 13:50:00,31.0,17.5,30.30,WNW,292,6.0,19.0,57,0.00,,,-99.99,Weather View 32 v60,2013-01-09 19:50:00,
2013-01-09 13:55:00,31.0,17.5,30.30,WNW,292,6.0,19.0,57,0.00,,,-99.99,Weather View 32 v60,2013-01-09 19:55:00,
2013-01-09 14:00:00,32.0,18.5,30.30,WNW,292,13.0,19.0,57,0.00,,,-99.99,Weather View 32 v60,2013-01-09 20:00:00,
2013-01-09 14:05:00,32.0,18.5,30.30,NW,315,2.0,19.0,57,0.00,,,-99.99,Weather View 32 v60,2013-01-09 20:05:00,
2013-01-09 14:10:00,32.0,18.1,30.30,West,270,8.0,19.0,56,0.00,,,-99.99,Weather View 32 v60,2013-01-09 20:10:00,
2013-01-09 14:15:00,33.0,19.4,30.30,WNW,292,5.0,19.0,57,0.00,,,-99.99,Weather View 32 v60,2013-01-09 20:15:00,
2013-01-09 14:20:00,33.0,19.0,30.31,West,270,5.0,19.0,56,0.00,,,-99.99,Weather View 32 v60,2013-01-09 20:20:00,
2013-01-09 14:25:00,33.0,18.6,30.31,WNW,292,5.0,19.0,55,0.00,,,-99.99,Weather View 32 v60,2013-01-09 20:25:00,
2013-01-09 14:30:00,33.0,18.6,30.32,NW,315,6.0,19.0,55,0.00,,,-99.99,Weather View 32 v60,2013-01-09 20:30:00,
2013-01-09 14:35:00,33.0,18.6,30.32,WNW,292,9.0,19.0,55,0.00,,,-99.99,Weather View 32 v60,2013-01-09 20:35:00,
2013-01-09 14:40:00,33.0,18.2,30.32,WNW,292,4.0,19.0,54,0.00,,,-99.99,Weather View 32 v60,2013-01-09 20:40:00,
2013-01-09 14:45:00,33.0,18.6,30.32,WSW,248,6.0,19.0,55,0.00,,,-99.99,Weather View 32 v60,2013-01-09 20:45:00,
2013-01-09 14:50:00,32.0,17.6,30.33,WNW,292,5.0,18.0,55,0.00,,,-99.99,Weather View 32 v60,2013-01-09 20:50:00,
2013-01-09 14:55:00,32.0,18.1,30.33,NW,315,3.0,18.0,56,0.00,,,-99.99,Weather View 32 v60,2013-01-09 20:55:00,
2013-01-09 15:00:00,32.0,18.1,30.33,WNW,292,2.0,18.0,56,0.00,,,-99.99,Weather View 32 v60,2013-01-09 21:00:00,
2013-01-09 15:05:00,32.0,18.5,30.34,WSW,248,4.0,14.0,57,0.00,,,-99.99,Weather View 32 v60,2013-01-09 21:05:00,
2013-01-09 15:10:00,32.0,18.5,30.34,West,270,4.0,14.0,57,0.00,,,-99.99,Weather View 32 v60,2013-01-09 21:10:00,
2013-01-09 15:15:00,31.0,17.5,30.34,NNW,338,5.0,14.0,57,0.00,,,-99.99,Weather View 32 v60,2013-01-09 21:15:00,
2013-01-09 15:20:00,31.0,17.9,30.34,WNW,292,10.0,14.0,58,0.00,,,-99.99,Weather View 32 v60,2013-01-09 21:20:00,
2013-01-09 15:25:00,31.0,17.9,30.34,WNW,292,3.0,14.0,58,0.00,,,-99.99,Weather View 32 v60,2013-01-09 21:25:00,
2013-01-09 15:30:00,31.0,17.9,30.34,WNW,292,7.0,14.0,58,0.00,,,-99.99,Weather View 32 v60,2013-01-09 21:30:00,
2013-01-09 15:35:00,30.0,17.4,30.34,WNW,292,3.0,13.0,59,0.00,,,-99.99,Weather View 32 v60,2013-01-09 21:35:00,
2013-01-09 15:40:00,30.0,17.4,30.34,West,270,3.0,13.0,59,0.00,,,-99.99,Weather View 32 v60,2013-01-09 21:40:00,
2013-01-09 15:50:00,30.0,17.8,30.34,West,270,3.0,12.0,60,0.00,,,-99.99,Weather View 32 v60,2013-01-09 21:50:00,
2013-01-09 15:55:00,29.0,16.8,30.34,WNW,292,3.0,12.0,60,0.00,,,-99.99,Weather View 32 v60,2013-01-09 21:55:00,
2013-01-09 16:00:00,29.0,16.8,30.34,NW,315,3.0,12.0,60,0.00,,,-99.99,Weather View 32 v60,2013-01-09 22:00:00,
2013-01-09 16:10:00,28.0,16.3,30.34,West,270,2.0,12.0,61,0.00,,,-99.99,Weather View 32 v60,2013-01-09 22:10:00,
2013-01-09 16:15:00,28.0,16.3,30.34,West,270,1.0,12.0,61,0.00,,,-99.99,Weather View 32 v60,2013-01-09 22:15:00,
2013-01-09 16:20:00,28.0,16.7,30.34,WSW,248,1.0,10.0,62,0.00,,,-99.99,Weather View 32 v60,2013-01-09 22:20:00,
2013-01-09 16:25:00,27.0,15.7,30.34,West,270,3.0,10.0,62,0.00,,,-99.99,Weather View 32 v60,2013-01-09 22:25:00,
2013-01-09 16:35:00,26.0,15.1,30.34,West,270,1.0,8.0,63,0.00,,,-99.99,Weather View 32 v60,2013-01-09 22:35:00,
2013-01-09 16:40:00,26.0,15.5,30.35,SW,225,2.0,8.0,64,0.00,,,-99.99,Weather View 32 v60,2013-01-09 22:40:00,
2013-01-09 16:45:00,30.0,17.4,30.34,WNW,292,5.0,13.0,59,0.00,,,-99.99,Weather View 32 v60,2013-01-09 22:45:00,
2013-01-09 16:50:00,25.0,14.5,30.35,West,270,3.0,8.0,64,0.00,,,-99.99,Weather View 32 v60,2013-01-09 22:50:00,
2013-01-09 16:55:00,25.0,14.9,30.35,WSW,248,1.0,6.0,65,0.00,,,-99.99,Weather View 32 v60,2013-01-09 22:55:00,
2013-01-09 17:05:00,29.0,17.2,30.34,WNW,292,2.0,12.0,61,0.00,,,-99.99,Weather View 32 v60,2013-01-09 23:05:00,
2013-01-09 17:15:00,25.0,15.6,30.35,WSW,248,1.0,7.0,67,0.00,,,-99.99,Weather View 32 v60,2013-01-09 23:15:00,
2013-01-09 17:25:00,25.0,15.6,30.35,WSW,248,4.0,7.0,67,0.00,,,-99.99,Weather View 32 v60,2013-01-09 23:25:00,
2013-01-09 17:30:00,27.0,16.1,30.34,WSW,248,1.0,10.0,63,0.00,,,-99.99,Weather View 32 v60,2013-01-09 23:30:00,
2013-01-09 17:40:00,26.0,15.5,30.35,SW,225,2.0,8.0,64,0.00,,,-99.99,Weather View 32 v60,2013-01-09 23:40:00,
2013-01-09 17:55:00,25.0,15.9,30.34,WSW,248,1.0,9.0,68,0.00,,,-99.99,Weather View 32 v60,2013-01-09 23:55:00,
2013-01-09 18:00:00,25.0,14.9,30.35,SW,225,2.0,6.0,65,0.00,,,-99.99,Weather View 32 v60,2013-01-10 00:00:00,
2013-01-09 18:05:00,25.0,15.2,30.35,SW,225,2.0,5.0,66,0.00,,,-99.99,Weather View 32 v60,2013-01-10 00:05:00,
2013-01-09 18:10:00,25.0,15.2,30.35,WNW,292,2.0,6.0,66,0.00,,,-99.99,Weather View 32 v60,2013-01-10 00:10:00,
2013-01-09 18:15:00,24.0,15.0,30.34,South,180,2.0,9.0,68,0.00,,,-99.99,Weather View 32 v60,2013-01-10 00:15:00,
2013-01-09 18:20:00,25.0,15.6,30.35,West,270,3.0,7.0,67,0.00,,,-99.99,Weather View 32 v60,2013-01-10 00:20:00,
2013-01-09 18:30:00,25.0,15.9,30.35,WSW,248,2.0,9.0,68,0.00,,,-99.99,Weather View 32 v60,2013-01-10 00:30:00,
2013-01-09 18:35:00,25.0,15.9,30.35,West,270,3.0,9.0,68,0.00,,,-99.99,Weather View 32 v60,2013-01-10 00:35:00,
2013-01-09 18:40:00,25.0,15.9,30.35,West,270,3.0,9.0,68,0.00,,,-99.99,Weather View 32 v60,2013-01-10 00:40:00,
2013-01-09 18:45:00,25.0,15.9,30.35,SW,225,4.0,9.0,68,0.00,,,-99.99,Weather View 32 v60,2013-01-10 00:45:00,
2013-01-09 18:55:00,23.0,15.3,30.35,SSW,202,3.0,6.0,72,0.00,,,-99.99,Weather View 32 v60,2013-01-10 00:55:00,
2013-01-09 19:00:00,25.0,15.9,30.35,WSW,248,2.0,9.0,68,0.00,,,-99.99,Weather View 32 v60,2013-01-10 01:00:00,
2013-01-09 19:05:00,25.0,15.9,30.35,SW,225,3.0,9.0,68,0.00,,,-99.99,Weather View 32 v60,2013-01-10 01:05:00,
2013-01-09 19:20:00,24.0,15.3,30.34,SW,225,1.0,9.0,69,0.00,,,-99.99,Weather View 32 v60,2013-01-10 01:20:00,
2013-01-09 19:25:00,24.0,15.3,30.34,SW,225,0.0,9.0,69,0.00,,,-99.99,Weather View 32 v60,2013-01-10 01:25:00,
2013-01-09 19:35:00,22.0,14.7,30.35,SSW,202,1.0,6.0,73,0.00,,,-99.99,Weather View 32 v60,2013-01-10 01:35:00,
2013-01-09 19:45:00,23.0,15.0,30.36,SW,225,2.0,8.0,71,0.00,,,-99.99,Weather View 32 v60,2013-01-10 01:45:00,
2013-01-09 19:50:00,23.0,15.0,30.36,WSW,248,1.0,8.0,71,0.00,,,-99.99,Weather View 32 v60,2013-01-10 01:50:00,
2013-01-09 20:05:00,23.0,15.6,30.34,SSW,202,2.0,6.0,73,0.00,,,-99.99,Weather View 32 v60,2013-01-10 02:05:00,
2013-01-09 20:10:00,23.0,15.6,30.34,SSW,202,2.0,6.0,73,0.00,,,-99.99,Weather View 32 v60,2013-01-10 02:10:00,
2013-01-09 20:15:00,23.0,15.3,30.34,SW,225,1.0,6.0,72,0.00,,,-99.99,Weather View 32 v60,2013-01-10 02:15:00,
2013-01-09 20:20:00,23.0,15.3,30.35,SSW,202,2.0,6.0,72,0.00,,,-99.99,Weather View 32 v60,2013-01-10 02:20:00,
2013-01-09 20:30:00,22.0,14.4,30.35,SSW,202,0.0,6.0,72,0.00,,,-99.99,Weather View 32 v60,2013-01-10 02:30:00,
2013-01-09 20:39:00,22.0,14.7,30.35,SSW,202,1.0,6.0,73,0.00,,,-99.99,Weather View 32 v60,2013-01-10 02:39:00,
2013-01-09 20:40:00,22.0,15.6,30.35,SW,225,3.0,6.0,76,0.00,,,-99.99,Weather View 32 v60,2013-01-10 02:40:00,
2013-01-09 20:45:00,21.0,13.7,30.35,SSW,202,3.0,6.0,73,0.00,,,-99.99,Weather View 32 v60,2013-01-10 02:45:00,
2013-01-09 20:50:00,21.0,14.0,30.35,South,180,4.0,5.0,74,0.00,,,-99.99,Weather View 32 v60,2013-01-10 02:50:00,
2013-01-09 21:00:00,22.0,15.3,30.35,SSW,202,3.0,5.0,75,0.00,,,-99.99,Weather View 32 v60,2013-01-10 03:00:00,
2013-01-09 21:05:00,22.0,15.3,30.34,South,180,1.0,5.0,75,0.00,,,-99.99,Weather View 32 v60,2013-01-10 03:05:00,
2013-01-09 21:10:00,22.0,15.3,30.34,SSW,202,1.0,5.0,75,0.00,,,-99.99,Weather View 32 v60,2013-01-10 03:10:00,
2013-01-09 21:15:00,21.0,14.3,30.35,SSW,202,3.0,5.0,75,0.00,,,-99.99,Weather View 32 v60,2013-01-10 03:15:00,
2013-01-09 21:25:00,21.0,14.3,30.35,SW,225,1.0,5.0,75,0.00,,,-99.99,Weather View 32 v60,2013-01-10 03:25:00,
2013-01-09 21:35:00,21.0,14.6,30.35,SSW,202,4.0,6.0,76,0.00,,,-99.99,Weather View 32 v60,2013-01-10 03:35:00,
2013-01-09 21:45:00,22.0,15.6,30.35,SW,225,1.0,6.0,76,0.00,,,-99.99,Weather View 32 v60,2013-01-10 03:45:00,
2013-01-09 21:50:00,22.0,15.6,30.35,SSW,202,3.0,6.0,76,0.00,,,-99.99,Weather View 32 v60,2013-01-10 03:50:00,
2013-01-09 21:55:00,22.0,15.6,30.34,South,180,1.0,6.0,76,0.00,,,-99.99,Weather View 32 v60,2013-01-10 03:55:00,
2013-01-09 22:00:00,18.0,12.3,30.33,SW,225,1.0,3.0,78,0.00,,,-99.99,Weather View 32 v60,2013-01-10 04:00:00,
2013-01-09 22:05:00,21.0,14.3,30.34,SSE,158,2.0,6.0,75,0.00,,,-99.99,Weather View 32 v60,2013-01-10 04:05:00,
2013-01-09 22:10:00,21.0,14.3,30.34,SSW,202,1.0,6.0,75,0.00,,,-99.99,Weather View 32 v60,2013-01-10 04:10:00,
2013-01-09 22:15:00,17.0,11.9,30.34,South,180,1.0,3.0,80,0.00,,,-99.99,Weather View 32 v60,2013-01-10 04:15:00,
2013-01-09 22:20:00,20.0,13.7,30.33,SSW,202,1.0,6.0,76,0.00,,,-99.99,Weather View 32 v60,2013-01-10 04:20:00,
2013-01-09 22:25:00,19.0,13.0,30.33,South,180,1.0,6.0,77,0.00,,,-99.99,Weather View 32 v60,2013-01-10 04:25:00,
2013-01-09 22:30:00,19.0,13.0,30.33,SW,225,1.0,6.0,77,0.00,,,-99.99,Weather View 32 v60,2013-01-10 04:30:00,
2013-01-09 22:35:00,19.0,13.0,30.33,SW,225,0.0,6.0,77,0.00,,,-99.99,Weather View 32 v60,2013-01-10 04:35:00,
2013-01-09 22:40:00,17.0,11.9,30.35,SSW,202,1.0,6.0,80,0.00,,,-99.99,Weather View 32 v60,2013-01-10 04:40:00,
2013-01-09 22:45:00,19.0,13.3,30.33,SW,225,0.0,5.0,78,0.00,,,-99.99,Weather View 32 v60,2013-01-10 04:45:00,
2013-01-09 22:50:00,18.0,12.3,30.33,SW,225,1.0,3.0,78,0.00,,,-99.99,Weather View 32 v60,2013-01-10 04:50:00,
2013-01-09 22:55:00,18.0,12.3,30.34,SSW,202,1.0,3.0,78,0.00,,,-99.99,Weather View 32 v60,2013-01-10 04:55:00,
2013-01-09 23:00:00,16.0,10.9,30.35,SSW,202,1.0,6.0,80,0.00,,,-99.99,Weather View 32 v60,2013-01-10 05:00:00,
2013-01-09 23:05:00,16.0,11.2,30.36,South,180,3.0,6.0,81,0.00,,,-99.99,Weather View 32 v60,2013-01-10 05:05:00,
2013-01-09 23:10:00,17.0,12.5,30.35,SSW,202,1.0,6.0,82,0.00,,,-99.99,Weather View 32 v60,2013-01-10 05:10:00,
2013-01-09 23:15:00,17.0,12.5,30.35,SSW,202,1.0,6.0,82,0.00,,,-99.99,Weather View 32 v60,2013-01-10 05:15:00,
2013-01-09 23:20:00,17.0,12.5,30.35,SSW,202,0.0,6.0,82,0.00,,,-99.99,Weather View 32 v60,2013-01-10 05:20:00,
2013-01-09 23:25:00,17.0,12.2,30.35,South,180,2.0,6.0,81,0.00,,,-99.99,Weather View 32 v60,2013-01-10 05:25:00,
2013-01-09 23:30:00,17.0,12.2,30.36,SW,225,0.0,6.0,81,0.00,,,-99.99,Weather View 32 v60,2013-01-10 05:30:00,
2013-01-09 23:35:00,16.0,11.2,30.36,SSW,202,1.0,5.0,81,0.00,,,-99.99,Weather View 32 v60,2013-01-10 05:35:00,
2013-01-09 23:40:00,16.0,11.2,30.36,SSW,202,0.0,5.0,81,0.00,,,-99.99,Weather View 32 v60,2013-01-10 05:40:00,
2013-01-09 23:45:00,16.0,11.2,30.35,SSE,158,2.0,5.0,81,0.00,,,-99.99,Weather View 32 v60,2013-01-10 05:45:00,
2013-01-09 23:50:00,16.0,11.5,30.36,SSW,202,4.0,5.0,82,0.00,,,-99.99,Weather View 32 v60,2013-01-10 05:50:00,
2013-01-09 23:55:00,16.0,11.8,30.36,SSW,202,2.0,7.0,83,0.00,,,-99.99,Weather View 32 v60,2013-01-10 05:55:00,